Hourly Data Report for June 15, 2017

BORDEN AWOS
ONTARIO

44°16'20.000" N
79°54'42.000" W
222.50 m
611B002
71534
YBN

Download Data

Hourly Data (June 2017)
Hourly Data Report for June 15, 2017
TIME
LST
Temp Definition
°C
Dew Point Definition
°C
Rel Hum Definition
%
Precip. Amount Definition
mm

Wind Dir Definition
10's deg

Wind Spd Definition
km/h
Visibility Definition
km
Stn Press Definition
kPa
Hmdx Definition


Wind Chill Definition


Weather Definition


00:00 14.2 6.8 61   15 7 14.5 98.98     LegendNANA
01:00 11.4 7.7 78     0 14.5 98.91     LegendNANA
02:00 11.0 7.4 78   18 4 14.5 98.85     LegendNANA
03:00 10.0 8.2 89     0 14.5 98.79     LegendNANA
04:00 9.8 8.3 90   21 4 14.5 98.80     LegendNANA
05:00 9.3 8.1 92     0 14.5 98.78     LegendNANA
06:00 13.6 10.2 80     0 14.5 98.73     LegendNANA
07:00 15.1 8.2 63   16 4 14.5 98.71     LegendNANA
08:00 17.2 9.6 61   16 6 14.5 98.67     LegendNANA
09:00 18.5 9.2 55   14 9 14.5 98.66     LegendNANA
10:00 20.7 9.8 50   13 13 14.5 98.61     LegendNANA
11:00 20.9 9.8 49   16 13 14.5 98.59     LegendNANA
12:00 20.3 10.9 55   1 4 14.5 98.55     Rain
13:00 16.3 14.0 86   15 19 14.5 98.51     Rain
14:00 16.4 14.3 87   16 15 14.5 98.50     LegendNANA
15:00 16.2 15.0 93   11 7 9.7 98.47     Rain
16:00 16.2 15.3 94   19 9 14.5 98.40     Rain
17:00 16.7 15.7 94   17 9 14.5 98.35     LegendNANA
18:00 16.7 15.5 93   14 6 14.5 98.40     Rain
19:00 16.8 15.5 92   10 11 14.5 98.32     LegendNANA
20:00 16.7 15.5 93   15 4 14.5 98.38     LegendNANA
21:00 16.5 15.5 94   16 7 14.5 98.41     LegendNANA
22:00 16.3 15.5 95   15 7 11.3 98.34     LegendNANA
23:00 16.3 15.8 97   10 4 8.0 98.34     LegendNANA

Notes on Data Quality.

Legend

  • E = Estimated
  • M = Missing
  • NA = Not Available*
  • [empty] = Indicates an unobserved value
Date modified: